Wind_Speed
24 25 25 25 24 25 26 26 27 27 28 30 32 35 37 40 42 45 47 49 52 55 58 62 64 66 68 70 73 74 73 72 72 72 72 72 70 67 64 62 61 60 58 57
27 28 29 28 26 28 28 29 29 30 31 32 34 36 38 40 43 45 48 50 52 55 58 61 64 66 68 70 72 74 74 73 72 72 72 71 70 67 64 62 60 59 58 57
31 31 32 30 28 30 31 31 32 33 34 35 36 37 40 42 44 46 49 51 53 55 58 61 64 66 68 70 72 74 74 73 72 72 71 70 69 66 64 61 59 58 57 56
35 34 35 31 31 32 33 33 35 36 37 38 39 39 41 44 46 47 50 52 53 55 57 60 63 66 67 70 71 73 74 73 72 72 71 70 69 66 63 61 59 58 56 55
38 38 38 33 33 35 37 36 37 39 40 41 42 42 42 45 47 48 50 52 54 55 57 60 63 66 67 69 71 72 74 73 72 71 70 69 68 66 63 61 59 57 56 55
40 42 42 37 37 38 40 40 40 41 42 43 44 46 45 47 48 49 51 53 54 56 57 59 62 65 67 68 70 71 73 73 72 71 70 69 68 66 63 61 58 57 55 55
42 44 44 40 40 41 42 43 43 44 45 46 47 48 49 50 50 51 52 53 55 56 57 59 61 64 66 68 69 70 72 73 72 71 70 69 67 66 63 60 58 56 55 54
44 46 44 42 41 42 44 45 46 48 49 50 50 50 51 51 52 53 53 54 56 57 57 59 60 63 65 67 68 70 71 72 71 70 69 68 67 65 63 60 58 56 54 54
48 47 44 42 41 43 45 48 49 51 52 53 53 53 53 53 54 54 54 55 56 57 57 58 60 61 64 66 67 68 69 70 70 69 68 67 66 65 63 60 58 55 54 53
51 48 43 43 43 44 46 50 51 53 55 56 56 55 55 55 55 55 55 55 56 57 58 58 59 61 63 64 66 67 68 69 69 68 67 67 65 64 63 61 58 55 53 52
54 50 48 46 46 47 50 51 53 55 56 57 58 58 58 57 56 56 56 56 56 57 58 58 59 60 62 63 64 65 66 67 68 67 66 66 65 64 62 61 58 56 53 52
58 54 57 55 53 53 54 55 56 57 58 58 59 60 60 60 59 58 58 57 57 57 58 58 59 60 61 62 63 64 64 65 66 66 65 64 63 63 62 60 58 55 53 52
61 59 61 61 59 58 59 59 59 59 60 60 60 60 61 61 61 60 59 58 58 57 58 58 58 59 60 61 62 62 63 63 65 64 64 63 62 61 60 59 58 56 53 51
63 64 66 65 64 63 63 62 61 61 60 60 61 62 62 62 62 61 60 60 59 58 58 58 58 58 59 60 60 60 61 61 63 63 62 61 61 60 59 58 56 55 53 51
62 64 67 67 66 65 64 64 64 63 62 62 62 62 62 62 62 61 61 60 60 58 58 57 57 57 58 58 58 58 59 59 60 61 60 60 59 59 58 57 56 54 52 51
61 62 62 63 63 61 61 61 61 60 60 60 60 61 62 62 62 61 61 60 59 58 58 57 57 56 56 56 56 56 57 57 58 59 59 58 58 57 57 56 55 54 52 50
57 57 57 57 57 56 56 56 56 56 56 56 56 57 58 58 59 59 59 59 59 58 58 57 56 56 55 55 55 55 55 55 55 57 56 56 56 55 55 55 54 53 51 50
49 50 51 52 52 52 52 52 52 52 53 53 53 53 53 54 54 55 56 56 57 58 57 57 57 55 54 53 53 53 53 53 53 54 54 54 53 54 54 54 53 52 51 49
46 47 48 48 49 49 50 50 50 50 50 51 51 51 52 52 52 53 54 54 55 56 56 57 57 55 53 52 52 51 51 50 50 51 52 51 51 52 52 52 52 51 50 49
45 46 47 47 48 49 50 51 51 51 52 52 52 52 52 52 52 52 52 52 53 55 55 56 56 54 53 51 50 49 49 48 48 49 49 49 49 49 50 50 50 50 49 48
48 48 49 50 51 52 53 53 54 54 54 54 53 53 52 52 52 52 51 51 52 54 54 55 55 53 51 50 48 47 46 45 45 46 46 46 46 47 47 48 49 48 47 47
49 50 51 52 53 53 54 55 56 57 57 57 56 55 54 53 53 52 52 51 52 53 53 53 53 51 49 48 46 45 44 43 43 43 43 43 44 45 45 46 47 47 46 45
50 51 52 54 55 55 56 57 58 58 59 59 59 57 56 55 53 52 50 51 51 52 52 52 51 50 47 45 44 42 41 41 40 40 40 41 42 42 43 44 45 45 45 44
53 54 55 56 58 59 60 60 61 60 60 59 59 59 57 55 53 51 51 50 50 50 50 50 50 48 45 43 41 39 39 38 37 37 38 39 40 40 41 41 42 43 43 42
55 56 57 58 59 60 60 60 60 60 60 59 58 58 57 55 53 50 49 50 50 49 49 48 47 45 42 40 37 36 36 35 34 35 35 36 37 38 38 39 40 41 41 41
54 55 55 56 58 58 59 59 58 58 57 56 55 54 54 53 52 50 49 49 48 47 46 45 44 42 40 37 35 34 33 32 32 32 33 34 34 35 36 37 38 39 40 39
53 54 54 54 54 55 55 55 54 53 52 52 50 48 47 48 47 47 46 46 45 44 43 42 41 40 37 34 33 32 30 29 29 30 30 31 32 33 34 35 36 37 38 38
Wind_Direction
272 273 275 277 281 286 291 297 301 307 311 316 320 324 327 331 333 336 338 340 342 344 345 346 347 348 348 349 350 350 350 349 349 350 350 351 352 352 352 352 352 353 354 354
270 272 275 277 282 285 289 294 298 302 307 311 315 319 322 325 329 332 334 337 339 341 342 344 345 346 347 348 349 350 350 350 349 350 351 351 352 353 353 353 353 353 354 355
271 272 274 278 281 283 287 291 295 299 303 306 311 315 318 321 325 328 330 333 336 338 339 342 344 345 346 347 348 349 350 350 350 350 351 351 352 353 353 353 354 354 354 355
274 274 275 280 281 282 284 288 292 295 299 303 307 311 314 317 321 324 327 330 332 334 337 339 341 344 344 345 347 348 349 349 349 350 351 351 352 353 354 354 354 354 354 355
275 275 277 278 280 281 283 285 289 292 296 299 302 306 310 312 316 319 322 325 329 331 334 336 339 341 343 344 346 347 348 349 349 350 351 351 352 353 354 354 354 355 355 355
275 276 278 280 280 280 282 284 287 289 292 295 299 302 306 308 312 315 319 322 325 329 331 333 336 339 341 343 344 346 347 348 349 349 350 351 352 353 354 354 355 355 355 355
276 277 279 282 283 283 284 286 287 288 291 293 296 300 303 306 309 312 316 319 322 325 328 331 333 336 339 341 343 344 346 347 348 348 349 351 352 353 354 355 355 355 355 355
275 276 280 282 282 283 283 284 286 288 290 292 294 297 300 303 306 309 312 315 318 322 325 328 330 333 336 338 341 342 344 346 347 348 349 350 351 353 354 355 355 355 355 355
276 278 281 281 282 282 282 283 284 286 288 290 292 294 297 300 303 306 309 312 315 318 322 325 327 330 333 336 338 341 342 344 346 347 348 349 351 352 353 354 355 355 355 355
276 278 280 280 280 279 279 280 282 284 286 288 290 292 295 297 300 303 306 309 312 315 318 321 324 327 330 333 336 338 340 342 344 346 347 348 350 351 353 354 355 355 355 355
278 280 279 278 278 277 277 278 280 281 284 286 288 291 293 295 298 300 303 306 309 311 314 318 321 324 327 330 333 336 338 340 343 344 346 347 349 351 352 353 354 355 355 355
280 281 280 278 276 276 277 277 278 279 281 283 286 289 291 293 296 298 300 303 305 308 311 314 317 320 324 327 330 333 336 338 341 343 344 346 348 350 352 353 354 355 355 355
280 280 279 279 279 278 278 278 279 280 282 283 284 286 288 291 293 295 297 299 302 304 307 310 314 317 320 324 327 330 333 336 339 341 343 345 347 349 351 352 353 354 355 355
278 277 277 277 278 278 279 280 281 281 282 283 283 284 285 287 289 291 293 296 298 301 304 307 310 314 317 320 324 327 330 333 336 339 341 343 346 348 350 351 353 353 354 355
277 277 278 278 279 279 280 280 280 281 281 281 281 282 284 285 287 289 290 293 295 298 300 303 307 310 314 317 321 324 328 331 334 337 340 342 344 347 349 351 352 353 354 354
278 278 279 280 281 282 282 282 282 282 282 282 282 282 282 283 285 287 288 290 292 294 296 299 303 306 310 314 318 321 325 328 332 335 338 340 343 346 348 350 352 353 354 354
279 280 281 282 283 284 284 284 284 284 284 284 284 284 284 284 284 285 285 287 289 291 294 296 299 302 306 310 314 318 322 325 329 333 336 338 341 344 347 349 351 352 353 354
279 281 282 284 285 285 286 286 286 287 287 287 287 286 286 286 286 285 285 285 287 288 290 293 295 299 302 306 310 315 319 322 326 330 334 337 340 343 346 348 350 351 353 354
282 283 284 286 287 288 288 289 288 289 289 289 288 288 287 286 285 285 285 286 285 285 287 288 291 295 298 301 306 311 315 319 324 328 332 335 338 341 344 347 349 351 352 353
283 283 284 286 288 289 289 289 290 290 289 289 289 288 287 286 284 284 283 284 283 282 283 285 288 292 295 298 302 307 311 316 321 326 330 333 337 340 343 346 348 350 351 353
284 285 286 286 287 287 288 288 288 288 289 288 288 287 286 285 284 282 281 280 279 280 281 283 286 289 291 294 298 303 308 313 318 323 328 332 335 339 342 345 347 349 351 352
288 288 288 288 288 288 288 288 287 287 286 286 286 286 285 284 282 280 278 277 276 277 278 280 283 286 288 291 295 299 304 310 316 321 326 330 334 337 340 343 346 349 350 352
290 290 290 290 289 289 289 288 288 287 286 285 284 283 282 282 280 279 276 273 272 273 275 277 280 282 285 288 292 296 301 307 313 319 324 329 333 336 339 342 345 348 350 351
291 291 291 291 291 290 289 288 288 287 286 285 284 283 281 278 277 275 274 272 270 270 272 275 277 279 281 285 288 292 297 303 310 316 322 327 331 335 338 341 345 348 349 351
292 292 292 292 292 291 291 290 289 288 287 285 285 283 280 276 273 272 270 269 269 270 271 272 273 275 278 280 285 289 294 300 307 314 320 326 330 334 338 341 344 347 349 350
293 293 293 293 293 293 292 292 291 290 289 287 284 282 279 275 271 268 266 266 267 268 270 271 271 271 273 276 280 285 290 297 305 312 318 324 328 333 337 340 344 347 349 350
292 293 293 294 294 294 294 293 292 291 290 289 288 284 279 275 271 267 265 264 264 266 268 269 269 268 269 272 276 281 287 295 303 310 317 322 327 332 336 339 343 346 349 350
Height
5834 5832 5830 5829 5827 5824 5821 5818 5816 5813 5808 5804 5798 5792 5786 5779 5773 5765 5758 5749 5740 5731 5721 5709 5698 5685 5672 5659 5645 5630 5616 5601 5586 5571 5555 5539 5524 5508 5494 5479 5465 5452 5439 5425
5828 5826 5823 5823 5822 5818 5815 5812 5809 5805 5802 5798 5793 5787 5780 5774 5767 5760 5752 5744 5735 5725 5715 5704 5693 5680 5668 5654 5640 5626 5611 5596 5582 5567 5551 5536 5521 5505 5491 5477 5463 5450 5437 5424
5821 5819 5816 5817 5816 5812 5809 5806 5802 5798 5796 5791 5786 5780 5774 5767 5761 5753 5745 5737 5728 5719 5709 5699 5688 5676 5663 5650 5636 5622 5607 5592 5578 5563 5548 5533 5518 5503 5488 5475 5461 5448 5435 5422
5812 5811 5809 5813 5808 5805 5801 5799 5795 5791 5787 5783 5778 5773 5767 5760 5754 5747 5739 5731 5722 5713 5704 5693 5682 5671 5658 5645 5632 5618 5603 5589 5574 5559 5545 5530 5515 5500 5486 5472 5459 5446 5434 5421
5803 5801 5800 5803 5801 5796 5792 5791 5788 5783 5779 5774 5769 5765 5761 5753 5747 5740 5732 5724 5716 5707 5697 5687 5677 5665 5653 5640 5627 5614 5600 5585 5571 5556 5542 5527 5512 5498 5484 5470 5457 5444 5432 5420
5794 5791 5790 5795 5792 5787 5784 5782 5779 5774 5770 5766 5760 5756 5753 5746 5739 5732 5725 5717 5709 5700 5691 5681 5671 5660 5648 5636 5623 5610 5596 5582 5568 5553 5539 5524 5510 5496 5481 5468 5455 5442 5430 5418
5785 5781 5781 5784 5780 5777 5775 5773 5769 5764 5760 5756 5751 5746 5742 5736 5730 5723 5716 5709 5701 5693 5684 5675 5665 5654 5643 5631 5619 5606 5592 5579 5565 5550 5536 5522 5507 5493 5480 5466 5454 5441 5429 5417
5775 5772 5775 5772 5769 5767 5764 5760 5757 5753 5749 5745 5741 5736 5731 5725 5720 5713 5707 5700 5692 5685 5677 5668 5658 5648 5638 5626 5614 5602 5589 5575 5562 5548 5533 5519 5505 5491 5478 5465 5452 5440 5428 5416
5765 5765 5764 5761 5759 5755 5752 5749 5745 5741 5738 5733 5729 5725 5720 5715 5710 5704 5697 5691 5684 5676 5669 5660 5651 5642 5632 5621 5609 5597 5585 5572 5558 5545 5531 5517 5503 5490 5476 5463 5451 5439 5427 5416
5752 5754 5753 5750 5747 5744 5739 5735 5733 5729 5725 5721 5716 5713 5709 5704 5699 5693 5688 5681 5675 5668 5660 5653 5644 5635 5626 5615 5604 5593 5581 5568 5555 5542 5528 5515 5501 5488 5475 5462 5450 5438 5426 5415
5739 5742 5739 5738 5734 5729 5726 5723 5720 5717 5712 5708 5703 5700 5696 5692 5688 5683 5677 5672 5665 5659 5652 5644 5636 5628 5619 5609 5599 5588 5576 5564 5552 5539 5526 5512 5499 5486 5473 5460 5448 5436 5425 5414
5725 5727 5719 5719 5720 5715 5711 5709 5706 5703 5700 5696 5691 5687 5683 5679 5676 5671 5666 5661 5655 5649 5642 5635 5628 5620 5612 5603 5593 5582 5571 5560 5548 5535 5523 5510 5496 5483 5470 5458 5446 5434 5422 5412
5710 5709 5702 5699 5700 5699 5694 5692 5691 5688 5685 5682 5678 5674 5669 5666 5662 5658 5654 5649 5644 5638 5632 5626 5619 5612 5604 5596 5587 5577 5566 5555 5544 5532 5520 5507 5494 5481 5469 5456 5444 5432 5421 5410
5692 5687 5681 5682 5681 5681 5678 5676 5674 5671 5669 5666 5662 5658 5654 5651 5647 5644 5640 5636 5632 5627 5622 5616 5610 5603 5596 5588 5580 5571 5561 5550 5539 5528 5516 5504 5492 5479 5467 5455 5443 5431 5420 5409
5672 5667 5663 5663 5663 5663 5662 5658 5655 5655 5653 5649 5646 5642 5638 5635 5632 5630 5626 5622 5619 5615 5610 5605 5600 5594 5587 5580 5572 5564 5554 5545 5534 5524 5512 5501 5489 5477 5465 5453 5441 5430 5419 5408
5652 5649 5647 5645 5645 5645 5643 5640 5637 5636 5634 5631 5628 5626 5622 5620 5618 5615 5612 5609 5605 5602 5598 5594 5589 5584 5578 5571 5564 5557 5548 5539 5529 5519 5509 5497 5486 5474 5463 5451 5440 5429 5418 5408
5633 5632 5630 5628 5628 5627 5625 5623 5620 5618 5616 5614 5612 5609 5607 5604 5602 5600 5598 5595 5592 5589 5586 5582 5578 5573 5568 5562 5556 5549 5541 5533 5524 5514 5504 5494 5483 5472 5460 5449 5438 5427 5417 5406
5617 5616 5614 5612 5611 5610 5609 5607 5604 5602 5599 5597 5596 5594 5592 5589 5587 5585 5583 5580 5578 5576 5573 5569 5565 5562 5557 5553 5547 5541 5534 5526 5518 5509 5500 5490 5479 5469 5458 5447 5436 5426 5415 5405
5606 5604 5602 5599 5597 5595 5593 5591 5588 5586 5584 5581 5579 5578 5576 5574 5572 5570 5568 5566 5564 5562 5560 5556 5553 5550 5547 5542 5538 5532 5526 5519 5512 5503 5495 5485 5475 5465 5455 5445 5434 5424 5414 5404
5593 5590 5588 5585 5583 5580 5578 5575 5573 5570 5568 5565 5563 5561 5559 5558 5555 5554 5553 5552 5550 5548 5545 5542 5540 5538 5535 5532 5528 5524 5518 5512 5505 5498 5489 5481 5471 5462 5452 5442 5432 5422 5412 5402
5579 5576 5574 5571 5569 5565 5562 5559 5556 5554 5551 5548 5546 5544 5542 5541 5539 5537 5536 5536 5535 5532 5531 5529 5527 5526 5524 5521 5519 5515 5510 5504 5498 5491 5484 5476 5467 5458 5449 5439 5430 5420 5410 5401
5563 5560 5557 5554 5551 5549 5545 5541 5538 5535 5533 5530 5528 5526 5524 5523 5521 5520 5520 5520 5519 5517 5516 5515 5515 5514 5513 5511 5508 5505 5501 5497 5491 5485 5478 5471 5463 5454 5445 5436 5427 5418 5409 5399
5547 5543 5540 5536 5533 5530 5527 5523 5519 5515 5513 5511 5508 5506 5505 5504 5503 5502 5503 5502 5502 5502 5502 5502 5502 5501 5501 5500 5498 5496 5493 5489 5484 5478 5472 5465 5458 5450 5442 5433 5424 5416 5407 5398
5530 5526 5522 5518 5513 5510 5507 5503 5498 5495 5492 5489 5487 5485 5484 5483 5484 5484 5485 5485 5485 5486 5487 5488 5488 5489 5489 5489 5488 5486 5484 5480 5476 5472 5466 5460 5453 5446 5438 5430 5422 5413 5405 5396
5513 5509 5504 5499 5494 5489 5485 5481 5478 5475 5471 5469 5467 5465 5464 5463 5464 5466 5467 5468 5469 5471 5473 5474 5475 5476 5477 5478 5478 5476 5474 5472 5469 5465 5460 5454 5448 5441 5434 5427 5419 5411 5403 5394
5496 5491 5486 5481 5476 5470 5465 5461 5458 5454 5450 5448 5447 5446 5444 5444 5445 5447 5449 5452 5454 5456 5459 5461 5462 5464 5466 5467 5467 5467 5465 5464 5461 5457 5453 5448 5442 5436 5430 5423 5416 5408 5400 5393
5479 5474 5469 5465 5460 5453 5448 5443 5439 5436 5432 5430 5428 5427 5426 5426 5428 5430 5433 5436 5439 5442 5445 5448 5450 5453 5455 5457 5457 5458 5457 5455 5453 5450 5447 5442 5437 5432 5426 5419 5413 5406 5398 5391